TimeCST,TemperatureF,Dew PointF,Humidity,Sea Level PressureIn,VisibilityMPH,Wind Direction,Wind SpeedMPH,Gust SpeedMPH,PrecipitationIn,Events,Conditions,WindDirDegrees,DateUTC
12:56 AM,30.0,22.1,72,30.01,10.0,South,13.8,-,N/A,,Partly Cloudy,180,2012-11-25 06:56:00
1:56 AM,30.0,22.1,72,29.99,10.0,SSW,13.8,-,N/A,,Clear,200,2012-11-25 07:56:00
2:56 AM,31.1,21.0,66,29.96,10.0,SSW,16.1,-,N/A,,Mostly Cloudy,200,2012-11-25 08:56:00
3:56 AM,31.1,22.1,69,29.94,10.0,SSW,16.1,-,N/A,,Clear,210,2012-11-25 09:56:00
4:56 AM,31.1,22.1,69,29.94,10.0,SW,13.8,-,N/A,,Clear,230,2012-11-25 10:56:00
5:56 AM,31.1,23.0,72,29.93,10.0,SW,12.7,-,N/A,,Clear,230,2012-11-25 11:56:00
6:56 AM,32.0,23.0,69,29.94,10.0,SW,12.7,-,N/A,,Clear,230,2012-11-25 12:56:00
7:56 AM,32.9,24.1,70,29.95,10.0,WSW,8.1,-,N/A,,Clear,240,2012-11-25 13:56:00
8:56 AM,34.9,24.1,65,29.96,10.0,WSW,9.2,-,N/A,,Clear,250,2012-11-25 14:56:00
9:56 AM,38.8,25.2,58,29.96,10.0,West,10.4,-,N/A,,Clear,280,2012-11-25 15:56:00
10:56 AM,39.9,25.2,56,29.96,10.0,West,8.1,-,N/A,,Clear,270,2012-11-25 16:56:00
11:56 AM,41.9,24.1,49,29.94,10.0,West,4.6,-,N/A,,Clear,270,2012-11-25 17:56:00
12:56 PM,43.9,25.2,48,29.95,10.0,West,10.4,-,N/A,,Clear,280,2012-11-25 18:56:00
1:56 PM,43.9,26.1,50,29.95,10.0,West,9.2,-,N/A,,Partly Cloudy,280,2012-11-25 19:56:00
2:56 PM,45.0,26.1,48,29.95,10.0,WNW,9.2,-,N/A,,Partly Cloudy,300,2012-11-25 20:56:00
3:56 PM,43.9,26.1,50,29.96,10.0,NW,8.1,-,N/A,,Clear,310,2012-11-25 21:56:00
4:56 PM,41.0,27.1,58,29.99,10.0,NW,8.1,-,N/A,,Partly Cloudy,320,2012-11-25 22:56:00
5:56 PM,41.0,26.1,55,30.02,10.0,NW,5.8,-,N/A,,Partly Cloudy,320,2012-11-25 23:56:00
6:56 PM,39.9,27.1,60,30.04,10.0,North,5.8,-,N/A,,Partly Cloudy,350,2012-11-26 00:56:00
7:56 PM,38.8,26.1,60,30.06,10.0,NNW,5.8,-,N/A,,Partly Cloudy,340,2012-11-26 01:56:00
8:56 PM,38.8,25.2,58,30.08,10.0,NNW,4.6,-,N/A,,Mostly Cloudy,330,2012-11-26 02:56:00
9:56 PM,36.9,25.2,63,30.09,10.0,NW,5.8,-,N/A,,Mostly Cloudy,320,2012-11-26 03:56:00
10:56 PM,36.9,25.2,63,30.11,10.0,NNW,8.1,-,N/A,,Overcast,330,2012-11-26 04:56:00
11:56 PM,36.9,25.2,63,30.12,10.0,North,9.2,-,N/A,,Mostly Cloudy,350,2012-11-26 05:56:00